Погода в Абиджане

Кот-д’Ивуар     5°21′13″N   4°00′51″W
темп.,
°C
ветер,
м/с
пор.,
м/с
влажн.,
%
обл.,
%
осадки,
мм/ч
давл.,
гПа
погр.,
м
1 марта, пн
пн100:00+27юз568699 8.3 1010496
03:00+27зюз5685100 0.0 1008580
06:00+27юз4684100 0.1 1008571
09:00+27юз458174 0.0 1010627
12:00+28юз557960 0.0 1009554
15:00+28юз557818 0.0 1007440
18:00+28зюз567951 0.0 1007480
21:00+27юз458360 0.0 1010405
2 марта, вт
вт200:00+27юз568430 0.1 1009420
03:00+27ююз67860 0.0 1008576
06:00+27ююз568626 0.0 1008635
09:00+27юз45816 0.1 1010661
12:00+28ююз44778 0.1 1010516
15:00+27юз457730 0.1 1008399
18:00+28ююз557934 0.1 1008437
21:00+27ю458210 0.0 1010292
3 марта, ср
ср300:00+27ююз57835 0.0 1009357
03:00+27ююз578658 0.0 1008557
06:00+27ююз468668 0.0 1009541
09:00+27юз458151 0.0 1011627
12:00+28юз567826 0.0 1011649
15:00+28юз667816 0.0 1008606
18:00+28юз557910 0.0 1009529
21:00+27ююз79830 0.0 1010479
4 марта, чт
чт400:00+27юз68840 0.0 1010447
03:00+27зюз68840 0.0 1008577
06:00+27зюз69850 0.0 1009571
09:00+28зюз688158 0.0 1010775
12:00+28зюз788134 0.0 1010702
15:00+28юз687823 0.0 1007583
18:00+28юз688015 0.2 1007494
21:00+27ююз68844 0.0 1009500
5 марта, пт
пт500:00+27юз69863 0.0 1010553
03:00+27юз79860 0.2 1008750
06:00+27юз79849 0.6 1008705
09:00+28юз788214 0.1 1010794
12:00+28юз687946 0.2 1010794
15:00+28юз677970 0.3 1007691
18:00+28юз688162 0.4 1008637
21:00+27юз688322 0.1 1010502